Tracking 32523 objects as of 13-Dec-2025
HD Live streaming from Space Station
objects crossing your sky now

INTELSAT 3-F4

Track INTELSAT 3-F4 now!
INTELSAT 3-F4 is classified as:


NORAD ID: 3947
Int'l Code: 1969-045A
Perigee: 38,824.7 km
Apogee: 39,032.9 km
Inclination: 4.2 °
Period: 1,599.2 minutes
Semi major axis: 45299 km
RCS: 2.5125 m2 (large)
Launch date: May 22, 1969
Source: International Telecommunications Satellite Organization (ITSO)
Launch site: AIR FORCE EASTERN TEST RANGE (AFETR)
Your satellite tracking list
Your tracking list is empty




NASA's NSSDC Master Catalog

Two Line Element Set (TLE):
1 03947U 69045A   25347.33207858 -.00000102  00000-0  00000-0 0  9998
2 03947   4.2492 288.7648 0022978  68.4154   3.4633  0.90044885 64293
Source of the keplerian elements: AFSPC